GPS BIIR-6 (PRN 22)

Last updated on Tue Jan 24 2023 00:03:12 GMT+0000 (Coordinated Universal Time)

1 26605U 00071A 23023.39450628 .00000015 00000+0 00000+0 0 9998 2 26605 55.1329 143.9889 0140285 255.3007 72.4634 2.00573052162638
UTC large
Height (km)
Speed (km/s)
/
Latitude / Longitude
Inclination (degrees)
Orbital Period (minutes)
Azimuth
Elevation
Range (km)
Doppler Factor

Next 0 passes for location: London (51.5072 / 0.1276)

Sorry there are no passes over London.
GPS BIIR-6 (PRN 22)